GW1468 Weather Reports


time (UTC)temp
F
wind
direction
speed
knots
gust
knots
rain 1hr
in
rain 24hr
in
rain mn
in
humidity
%
barometer
mb
20260510203930 78 265 2.6 5.2 0.00 0.00 0.00 45
20260510203333 78 187 2.6 5.2 0.00 0.00 0.00 45
20260510202745 78 194 1.7 3.5 0.00 0.00 0.00 45
20260510202136 79 169 1.7 3.5 0.00 0.00 0.00 46
20260510200912 78 251 3.5 7.0 0.00 0.00 0.00 46
20260510200339 77 218 0.9 2.6 0.00 0.00 0.00 50
20260510195720 76 305 1.7 2.6 0.00 0.00 0.00 53
20260510195153 76 166 2.6 3.5 0.00 0.00 0.00 47
20260510194535 78 251 4.3 6.1 0.00 0.00 0.00 45
20260510193952 79 198 3.5 3.5 0.00 0.00 0.00 43
20260510193321 78 191 1.7 3.5 0.00 0.00 0.00 47
20260510192731 77 192 1.7 1.7 0.00 0.00 0.00 46
20260510192132 76 238 0.0 0.9 0.00 0.00 0.00 56
20260510191534 77 25 0.9 0.9 0.00 0.00 0.00 48
20260510190926 77 335 0.0 0.9 0.00 0.00 0.00 53
20260510190319 77 182 0.9 1.7 0.00 0.00 0.00 47
20260510185121 76 175 1.7 2.6 0.00 0.00 0.00 46
20260510184544 76 167 1.7 3.5 0.00 0.00 0.00 46
20260510183943 76 252 0.9 1.7 0.00 0.00 0.00 47
20260510183349 76 165 3.5 3.5 0.00 0.00 0.00 44
20260510182738 77 183 1.7 5.2 0.00 0.00 0.00 44
20260510182115 79 205 3.5 7.0 0.00 0.00 0.00 44
20260510181544 78 243 1.7 7.0 0.00 0.00 0.00 41
20260510180934 78 165 1.7 5.2 0.00 0.00 0.00 44
20260510180317 79 177 2.6 5.2 0.00 0.00 0.00 41
20260510175741 78 327 0.0 1.7 0.00 0.00 0.00 43
20260510175152 77 28 1.7 3.5 0.00 0.00 0.00 42
20260510173950 78 207 2.6 3.5 0.00 0.00 0.00 42
20260510173326 78 226 1.7 3.5 0.00 0.00 0.00 44
20260510172724 76 227 5.2 8.7 0.00 0.00 0.00 45
20260510172111 78 171 3.5 7.0 0.00 0.00 0.00 43
20260510170336 76 174 1.7 7.0 0.00 0.00 0.00 48
20260510165751 77 251 1.7 6.1 0.00 0.00 0.00 49
20260510164545 76 182 2.6 5.2 0.00 0.00 0.00 48
20260510163944 76 220 2.6 7.0 0.00 0.00 0.00 49
20260510162724 75 184 1.7 1.7 0.00 0.00 0.00 49
20260510161529 75 190 1.7 5.2 0.00 0.00 0.00 48
20260510160950 74 197 1.7 6.1 0.00 0.00 0.00 50
20260510155736 74 257 1.7 2.6 0.00 0.00 0.00 50
20260510155150 73 261 0.9 0.9 0.00 0.00 0.00 52
20260510154523 74 310 3.5 3.5 0.00 0.00 0.00 53
20260510153949 73 243 0.9 3.5 0.00 0.00 0.00 55
20260510153322 74 188 3.5 7.0 0.00 0.00 0.00 52
20260510152733 73 180 1.7 10.4 0.00 0.00 0.00 56
20260510152149 72 268 3.5 7.8 0.00 0.00 0.00 54
20260510151535 72 172 2.6 5.2 0.00 0.00 0.00 55
20260510150914 71 198 7.8 8.7 0.00 0.00 0.00 57
20260510150339 70 237 1.7 5.2 0.00 0.00 0.00 58
20260510145717 70 198 3.5 6.1 0.00 0.00 0.00 60
20260510145138 70 151 3.5 5.2 0.00 0.00 0.00 62
20260510144510 69 211 1.7 7.8 0.00 0.00 0.00 62
20260510143926 69 177 0.9 6.1 0.00 0.00 0.00 64
20260510143335 68 237 1.7 7.0 0.00 0.00 0.00 68
20260510142713 66 178 1.7 3.5 0.00 0.00 0.00 70
20260510142128 65 191 0.9 3.5 0.00 0.00 0.00 73
20260510140929 62 300 0.0 0.9 0.00 0.00 0.00 83
20260510135715 60 303 0.9 0.9 0.00 0.00 0.00 85
20260510135116 59 308 0.0 0.9 0.00 0.00 0.00 88
20260510134511 58 292 0.0 0.9 0.00 0.00 0.00 88
20260510133348 56 174 0.0 0.9 0.00 0.00 0.00 91
20260510132749 55 355 0.0 0.9 0.00 0.00 0.00 93
20260510131517 52 304 0.0 0.9 0.00 0.00 0.00 99
20260510130920 51 311 0.0 0.0 0.00 0.00 0.00 99
20260510130331 50 311 0.0 0.0 0.00 0.00 0.00 99
20260510125751 50 306 0.0 0.0 0.00 0.00 0.00 99
20260510125144 49 290 0.0 0.9 0.00 0.00 0.00 99
20260510123308 47 328 0.0 0.0 0.00 0.00 0.00 99
20260510122729 47 328 0.9 0.9 0.00 0.00 0.00 99
20260510122133 46 342 0.0 0.9 0.00 0.00 0.00 99
20260510121511 46 342 0.0 0.9 0.00 0.00 0.00 99
20260510120949 46 344 0.0 0.9 0.00 0.00 0.00 99
20260510115743 45 349 0.0 0.0 0.00 0.00 0.00 99
20260510114518 44 4 0.0 0.0 0.00 0.00 0.00 99
20260510113914 44 13 0.0 0.0 0.00 0.00 0.00 99
20260510112710 43 13 0.0 0.0 0.00 0.00 0.00 99
20260510112131 43 13 0.0 0.0 0.00 0.00 0.00 99
20260510111532 43 13 0.0 0.0 0.00 0.00 0.00 99
20260510110933 43 13 0.0 0.0 0.00 0.00 0.00 99
20260510110312 43 13 0.0 0.0 0.00 0.00 0.00 99
20260510105747 43 13 0.0 0.0 0.00 0.00 0.00 99
20260510105143 43 13 0.0 0.0 0.00 0.00 0.00 99
20260510103934 43 13 0.0 0.0 0.00 0.00 0.00 99
20260510103324 43 13 0.0 0.0 0.00 0.00 0.00 99
20260510102717 43 13 0.0 0.0 0.00 0.00 0.00 99
20260510102142 43 13 0.0 0.0 0.00 0.00 0.00 99
20260510101510 43 13 0.0 0.0 0.00 0.00 0.00 99
20260510100351 43 13 0.0 0.0 0.00 0.00 0.00 99
20260510095710 43 13 0.0 0.0 0.00 0.00 0.00 99
20260510095139 44 13 0.0 0.0 0.00 0.00 0.00 99
20260510094539 44 13 0.0 0.0 0.00 0.00 0.00 99
20260510093908 44 13 0.0 0.0 0.00 0.00 0.00 99
20260510093327 44 14 0.0 0.0 0.00 0.00 0.00 99
20260510092725 44 12 0.0 0.0 0.00 0.00 0.00 99
20260510092129 44 12 0.0 0.0 0.00 0.00 0.00 99
20260510091537 44 12 0.0 0.0 0.00 0.00 0.00 99
20260510090909 44 12 0.0 0.0 0.00 0.00 0.00 99
20260510090341 44 12 0.0 0.0 0.00 0.00 0.00 99
20260510085716 44 12 0.0 0.0 0.00 0.00 0.00 99
20260510083948 43 12 0.0 0.0 0.00 0.00 0.00 99
20260510083352 43 12 0.0 0.0 0.00 0.00 0.00 99
20260510082744 43 12 0.0 0.0 0.00 0.00 0.00 99
20260510082119 44 12 0.0 0.0 0.00 0.00 0.00 99
20260510081549 44 12 0.0 0.0 0.00 0.00 0.00 99
20260510080918 44 12 0.0 0.0 0.00 0.00 0.00 99
20260510080327 44 12 0.0 0.0 0.00 0.00 0.00 99
20260510075750 44 12 0.0 0.0 0.00 0.00 0.00 99
20260510074542 44 12 0.0 0.0 0.00 0.00 0.00 99
20260510073942 44 12 0.0 0.0 0.00 0.00 0.00 99
20260510073347 44 12 0.0 0.0 0.00 0.00 0.00 99
20260510072734 44 12 0.0 0.0 0.00 0.00 0.00 99
20260510072126 45 12 0.0 0.0 0.00 0.00 0.00 99
20260510071546 45 12 0.0 0.0 0.00 0.00 0.00 99
20260510070925 45 12 0.0 0.0 0.00 0.00 0.00 99
20260510070312 45 12 0.0 0.0 0.00 0.00 0.00 99
20260510065734 45 12 0.0 0.0 0.00 0.00 0.00 99
20260510065141 45 12 0.0 0.0 0.00 0.00 0.00 99
20260510063923 45 12 0.0 0.0 0.00 0.00 0.00 99
20260510063330 46 12 0.0 0.0 0.00 0.00 0.00 99
20260510062709 46 12 0.0 0.0 0.00 0.00 0.00 99
20260510062146 46 340 0.0 0.9 0.00 0.00 0.00 99
20260510061534 45 340 0.0 0.0 0.00 0.00 0.00 99
20260510060949 46 340 0.0 0.0 0.00 0.00 0.00 99
20260510060341 46 340 0.0 0.0 0.00 0.00 0.00 99
20260510055725 46 340 0.0 0.0 0.00 0.00 0.00 99
20260510055118 46 340 0.0 0.0 0.00 0.00 0.00 99
20260510054538 46 339 0.0 0.9 0.00 0.00 0.00 99
20260510053314 46 325 0.0 0.0 0.00 0.00 0.00 99
20260510052149 47 325 0.0 0.0 0.00 0.00 0.00 99
20260510051548 47 325 0.0 0.0 0.00 0.00 0.00 99
20260510050912 48 324 0.0 0.0 0.00 0.00 0.00 99
20260510050332 48 325 0.0 0.0 0.00 0.00 0.00 99
20260510045721 48 313 0.0 0.0 0.00 0.00 0.00 99
20260510045110 48 313 0.0 0.0 0.00 0.00 0.00 99
20260510043931 48 313 0.0 0.0 0.00 0.00 0.00 99
20260510043338 48 313 0.0 0.0 0.00 0.00 0.00 99
20260510042711 48 313 0.0 0.0 0.00 0.00 0.00 99
20260510042145 48 313 0.0 0.0 0.00 0.00 0.00 99
20260510041533 48 313 0.0 0.0 0.00 0.00 0.00 99
20260510040924 49 313 0.0 0.0 0.00 0.00 0.00 99
20260510040343 49 313 0.0 0.0 0.00 0.00 0.00 99
20260510035747 49 313 0.0 0.0 0.00 0.00 0.00 99
20260510035123 49 313 0.0 0.0 0.00 0.00 0.00 99
20260510034541 49 313 0.0 0.0 0.00 0.00 0.00 99
20260510033909 49 313 0.0 0.0 0.00 0.00 0.00 99
20260510033316 50 313 0.0 0.0 0.00 0.00 0.00 99
20260510032752 50 313 0.0 0.0 0.00 0.00 0.00 99
20260510032147 50 313 0.0 0.0 0.00 0.00 0.00 99
20260510031524 50 313 0.0 0.0 0.00 0.00 0.00 99
20260510030919 50 313 0.0 0.0 0.00 0.00 0.00 99
20260510030328 50 313 0.0 0.0 0.00 0.00 0.00 99
20260510025732 50 313 0.0 0.0 0.00 0.00 0.00 99
20260510025122 51 313 0.0 0.0 0.00 0.00 0.00 99
20260510023940 51 313 0.0 0.0 0.00 0.00 0.00 99
20260510022739 52 313 0.0 0.0 0.00 0.00 0.00 99
20260510021510 52 313 0.0 0.0 0.00 0.00 0.00 98
20260510020952 52 313 0.0 0.0 0.00 0.00 0.00 97
20260510015740 53 313 0.0 0.0 0.00 0.00 0.00 97
20260510015143 53 313 0.0 0.0 0.00 0.00 0.00 97
20260510014511 53 313 0.0 0.0 0.00 0.00 0.00 96
20260510013946 54 313 0.0 0.0 0.00 0.00 0.00 96
20260510012725 54 247 0.0 0.0 0.00 0.00 0.00 96
20260510012131 54 247 0.0 0.0 0.00 0.00 0.00 95
20260510011556 54 247 0.0 0.0 0.00 0.00 0.00 95
20260510010951 54 247 0.0 0.0 0.00 0.00 0.00 94
20260510010348 55 247 0.0 0.0 0.00 0.00 0.00 93
20260510005143 55 247 0.0 0.9 0.00 0.00 0.00 92
20260510004550 56 246 0.0 0.0 0.00 0.00 0.00 91
20260510003307 57 246 0.0 0.0 0.00 0.00 0.00 89
20260510002716 57 247 0.0 0.0 0.00 0.00 0.00 89
20260510001511 58 247 0.0 0.0 0.00 0.00 0.00 86
20260510000943 59 247 0.0 0.0 0.00 0.00 0.00 86
20260510000349 60 247 0.0 0.0 0.00 0.00 0.00 84
20260509235710 60 247 0.0 0.0 0.00 0.00 0.00 82
20260509235126 61 247 0.0 0.0 0.00 0.00 0.00 80
20260509234543 62 247 0.0 0.9 0.00 0.00 0.00 79
20260509233949 63 247 0.0 0.0 0.00 0.00 0.00 76
20260509233339 63 247 0.0 0.9 0.00 0.00 0.00 74
20260509232130 67 247 0.0 0.0 0.00 0.00 0.00 68
20260509231509 67 250 0.0 0.9 0.00 0.00 0.00 66
20260509230951 68 249 0.0 0.9 0.00 0.00 0.00 67
20260509230332 68 250 0.0 1.7 0.00 0.00 0.00 68
20260509225146 68 239 0.9 0.9 0.00 0.00 0.00 62
20260509224535 69 216 0.9 0.9 0.00 0.00 0.00 58
20260509223928 69 246 0.0 0.9 0.00 0.00 0.00 61
20260509223343 70 296 0.9 1.7 0.00 0.00 0.00 55
20260509222130 71 225 1.7 2.6 0.00 0.00 0.00 56
20260509220917 71 64 0.9 2.6 0.00 0.00 0.00 51
20260509220325 71 244 1.7 2.6 0.00 0.00 0.00 52
20260509215723 72 177 1.7 6.1 0.00 0.00 0.00 53
20260509215134 72 213 1.7 2.6 0.00 0.00 0.00 52
20260509214520 71 194 0.9 7.0 0.00 0.00 0.00 52
20260509213334 70 227 0.9 6.1 0.00 0.00 0.00 57
20260509212738 70 239 0.9 2.6 0.00 0.00 0.00 56
20260509212145 69 240 1.7 2.6 0.00 0.00 0.00 55
20260509211542 69 293 3.5 3.5 0.00 0.00 0.00 56
20260509210931 69 212 1.7 6.1 0.00 0.00 0.00 55
20260509210318 69 158 2.6 7.8 0.00 0.00 0.00 55
20260509205747 68 266 0.9 6.1 0.00 0.00 0.00 56
20260509205134 68 252 2.6 5.2 0.00 0.00 0.00 56
20260509204537 68 204 7.0 8.7 0.00 0.00 0.00 55